GW3839 Weather Reports


Display with metric or nautical units.
time (UTC)temp
F
wind
direction
speed
MPH
gust
MPH
rain 1hr
in
rain 24hr
in
rain mn
in
humidity
%
barometer
mb
20260905234438 92 122 1.0 2.0 0.00 0.00 0.00 63 1014.2
20260905233932 92 127 1.0 2.0 0.00 0.00 0.00 62 1014.1
20260905233428 92 67 1.0 1.0 0.00 0.00 0.00 61 1014.1
20260905232927 93 54 3.0 4.0 0.00 0.00 0.00 61 1014.0
20260905232423 93 53 2.0 2.0 0.00 0.00 0.00 61 1014.0
20260905231918 93 62 3.0 3.0 0.00 0.00 0.00 61 1014.0
20260905231414 94 30 1.0 2.0 0.00 0.00 0.00 60 1014.0
20260905230911 94 71 2.0 3.0 0.00 0.00 0.00 59 1013.8
20260905230408 95 350 3.0 4.0 0.00 0.00 0.00 57 1014.0
20260905225901 95 32 1.0 1.0 0.00 0.00 0.00 57 1013.9
20260905225356 95 134 3.0 4.0 0.00 0.00 0.00 57 1013.9
20260905224851 95 359 2.0 3.0 0.00 0.00 0.00 56 1013.9
20260905224341 95 56 2.0 2.0 0.00 0.00 0.00 56 1013.9
20260905223835 96 22 3.0 3.0 0.00 0.00 0.00 56 1013.8
20260905223333 95 136 2.0 2.0 0.00 0.00 0.00 57 1013.7
20260905222828 95 104 2.0 3.0 0.00 0.00 0.00 56 1013.6
20260905222327 96 35 2.0 2.0 0.00 0.00 0.00 56 1013.7
20260905221823 96 16 1.0 2.0 0.00 0.00 0.00 56 1013.7
20260905221320 95 159 1.0 2.0 0.00 0.00 0.00 56 1013.6
20260905220815 96 349 2.0 2.0 0.00 0.00 0.00 56 1013.7
20260905220311 96 20 2.0 3.0 0.00 0.00 0.00 53 1013.7
20260905215810 97 83 2.0 3.0 0.00 0.00 0.00 51 1013.6
20260905215306 96 86 1.0 2.0 0.00 0.00 0.00 50 1013.6
20260905214802 97 60 2.0 2.0 0.00 0.00 0.00 52 1013.9
20260905214258 97 339 2.0 2.0 0.00 0.00 0.00 50 1013.7
20260905213753 96 339 2.0 2.0 0.00 0.00 0.00 51 1013.9
20260905213249 96 358 2.0 3.0 0.00 0.00 0.00 51 1013.9
20260905212743 98 5 2.0 3.0 0.00 0.00 0.00 49 1013.7
20260905212238 98 21 3.0 4.0 0.00 0.00 0.00 48 1013.9
20260905211737 98 342 3.0 3.0 0.00 0.00 0.00 49 1014.0
20260905211233 98 92 2.0 3.0 0.00 0.00 0.00 50 1014.0
20260905210729 98 244 2.0 2.0 0.00 0.00 0.00 49 1014.0
20260905210229 98 13 2.0 2.0 0.00 0.00 0.00 48 1013.7
20260905205728 98 54 3.0 3.0 0.00 0.00 0.00 48 1014.0
20260905205222 98 25 0.0 1.0 0.00 0.00 0.00 48 1013.7
20260905204716 98 316 2.0 2.0 0.00 0.00 0.00 47 1014.0
20260905204212 98 352 2.0 3.0 0.00 0.00 0.00 48 1013.9
20260905203706 99 22 4.0 6.0 0.00 0.00 0.00 48 1013.9
20260905203202 98 32 2.0 2.0 0.00 0.00 0.00 48 1013.8
20260905202657 97 355 3.0 3.0 0.00 0.00 0.00 50 1013.9
20260905202152 98 33 1.0 2.0 0.00 0.00 0.00 49 1014.1
20260905201648 99 123 1.0 2.0 0.00 0.00 0.00 48 1014.2
20260905201147 99 2 4.0 6.0 0.00 0.00 0.00 47 1014.2
20260905200643 99 256 6.0 7.0 0.00 0.00 0.00 47 1014.3
20260905200138 98 261 4.0 7.0 0.00 0.00 0.00 48 1014.2
20260905195636 99 347 3.0 4.0 0.00 0.00 0.00 48 1014.3
20260905195131 100 1 1.0 1.0 0.00 0.00 0.00 47 1014.1
20260905194626 99 230 2.0 2.0 0.00 0.00 0.00 48 1014.2
20260905194126 98 69 2.0 2.0 0.00 0.00 0.00 50 1014.3
20260905193621 99 306 3.0 4.0 0.00 0.00 0.00 48 1014.2
20260905193116 98 153 2.0 3.0 0.00 0.00 0.00 49 1014.2
20260905192612 97 150 1.0 1.0 0.00 0.00 0.00 51 1014.4
20260905192107 98 240 2.0 2.0 0.00 0.00 0.00 49 1014.4
20260905191606 97 334 6.0 8.0 0.00 0.00 0.00 50 1014.6
20260905191105 96 113 0.0 0.0 0.00 0.00 0.00 52 1014.5
20260905190603 98 346 3.0 4.0 0.00 0.00 0.00 51 1014.5
20260905185601 99 339 2.0 3.0 0.00 0.00 0.00 49 1014.6
20260905185056 98 275 5.0 7.0 0.00 0.00 0.00 50 1014.8
20260905184551 98 232 2.0 3.0 0.00 0.00 0.00 50 1014.9
20260905184049 98 336 2.0 3.0 0.00 0.00 0.00 50 1014.9
20260905183543 98 58 0.0 1.0 0.00 0.00 0.00 50 1014.9
20260905183038 98 354 2.0 3.0 0.00 0.00 0.00 49 1015.1
20260905182532 98 1 3.0 4.0 0.00 0.00 0.00 49 1015.2
20260905182026 98 92 1.0 1.0 0.00 0.00 0.00 50 1015.0
20260905181521 98 171 2.0 2.0 0.00 0.00 0.00 49 1015.0
20260905181020 99 60 1.0 2.0 0.00 0.00 0.00 48 1015.1
20260905180515 98 216 1.0 2.0 0.00 0.00 0.00 48 1015.3
20260905180011 98 344 3.0 4.0 0.00 0.00 0.00 49 1015.2
20260905175510 98 37 7.0 9.0 0.00 0.00 0.00 49 1015.3
20260905175006 98 344 2.0 2.0 0.00 0.00 0.00 49 1015.2
20260905174501 98 313 3.0 3.0 0.00 0.00 0.00 48 1015.3
20260905173957 97 293 2.0 3.0 0.00 0.00 0.00 49 1015.4
20260905173453 98 339 2.0 2.0 0.00 0.00 0.00 49 1015.3
20260905172948 98 16 3.0 4.0 0.00 0.00 0.00 48 1015.2
20260905172446 98 8 2.0 2.0 0.00 0.00 0.00 50 1015.5
20260905171942 96 61 2.0 2.0 0.00 0.00 0.00 51 1015.5
20260905171438 97 45 3.0 3.0 0.00 0.00 0.00 50 1015.5
20260905170934 97 322 3.0 4.0 0.00 0.00 0.00 51 1015.7
20260905170430 97 324 1.0 2.0 0.00 0.00 0.00 52 1015.6
20260905165929 96 342 2.0 2.0 0.00 0.00 0.00 53 1015.6
20260905165425 98 46 1.0 1.0 0.00 0.00 0.00 51 1015.5
20260905164920 97 82 0.0 0.0 0.00 0.00 0.00 51 1015.7
20260905164414 96 61 3.0 4.0 0.00 0.00 0.00 52 1015.7
20260905163909 96 304 2.0 3.0 0.00 0.00 0.00 51 1015.7
20260905163406 96 83 2.0 2.0 0.00 0.00 0.00 53 1015.7
20260905162902 97 100 0.0 1.0 0.00 0.00 0.00 52 1015.7
20260905162402 97 49 2.0 3.0 0.00 0.00 0.00 51 1016.0
20260905161856 96 128 1.0 1.0 0.00 0.00 0.00 53 1015.9
20260905161355 96 251 2.0 3.0 0.00 0.00 0.00 54 1015.8
20260905160854 95 158 1.0 1.0 0.00 0.00 0.00 54 1015.9
20260905160348 95 229 2.0 2.0 0.00 0.00 0.00 54 1015.9
20260905155843 95 315 1.0 2.0 0.00 0.00 0.00 54 1015.9
20260905155343 94 217 3.0 3.0 0.00 0.00 0.00 56 1015.6
20260905154842 94 246 4.0 4.0 0.00 0.00 0.00 56 1016.0
20260905154337 94 203 2.0 2.0 0.00 0.00 0.00 56 1015.9
20260905153833 93 126 0.0 1.0 0.00 0.00 0.00 56 1015.7
20260905153330 93 221 3.0 4.0 0.00 0.00 0.00 57 1016.0
20260905152824 93 72 1.0 1.0 0.00 0.00 0.00 57 1015.8
20260905152323 92 273 2.0 3.0 0.00 0.00 0.00 58 1015.9
20260905151818 92 242 2.0 2.0 0.00 0.00 0.00 57 1015.8
20260905151313 92 211 1.0 1.0 0.00 0.00 0.00 59 1015.8
20260905150808 92 223 2.0 2.0 0.00 0.00 0.00 58 1015.7
20260905150307 90 119 0.0 1.0 0.00 0.00 0.00 61 1015.8
20260905145804 91 67 1.0 2.0 0.00 0.00 0.00 60 1015.9
20260905145259 91 264 3.0 4.0 0.00 0.00 0.00 59 1015.9
20260905144758 90 333 1.0 1.0 0.00 0.00 0.00 61 1015.9
20260905144254 89 241 3.0 3.0 0.00 0.00 0.00 59 1015.7
20260905143752 89 256 4.0 4.0 0.00 0.00 0.00 61 1015.8
20260905143247 89 244 4.0 6.0 0.00 0.00 0.00 62 1015.9
20260905142745 88 237 2.0 3.0 0.00 0.00 0.00 65 1015.9
20260905142240 88 252 3.0 3.0 0.00 0.00 0.00 64 1015.8
20260905141736 88 238 3.0 3.0 0.00 0.00 0.00 65 1016.0
20260905141232 87 192 2.0 2.0 0.00 0.00 0.00 66 1015.9
20260905140727 88 219 2.0 2.0 0.00 0.00 0.00 64 1015.9
20260905140221 88 183 1.0 1.0 0.00 0.00 0.00 67 1015.9
20260905135721 87 151 1.0 2.0 0.00 0.00 0.00 69 1015.8
20260905135217 86 221 1.0 2.0 0.00 0.00 0.00 70 1016.0
20260905134716 85 152 1.0 2.0 0.00 0.00 0.00 71 1015.9
20260905134215 84 147 1.0 1.0 0.00 0.00 0.00 74 1016.0
20260905133711 84 179 2.0 2.0 0.00 0.00 0.00 74 1016.0
20260905133211 83 152 1.0 1.0 0.00 0.00 0.00 76 1016.2
20260905132709 82 163 2.0 2.0 0.00 0.00 0.00 77 1016.0
20260905132205 81 197 2.0 2.0 0.00 0.00 0.00 80 1015.9
20260905131700 80 180 1.0 2.0 0.00 0.00 0.00 80 1015.9
20260905131155 79 167 1.0 1.0 0.00 0.00 0.00 83 1016.1
20260905130650 78 197 2.0 2.0 0.00 0.00 0.00 84 1016.1
20260905130149 78 193 1.0 1.0 0.00 0.00 0.00 85 1016.0
20260905125644 77 144 0.0 0.0 0.00 0.00 0.00 87 1015.9
20260905125140 76 142 0.0 0.0 0.00 0.00 0.00 89 1015.9
20260905124636 75 141 0.0 0.0 0.00 0.00 0.00 89 1015.8
20260905124132 75 141 0.0 0.0 0.00 0.00 0.00 90 1015.7
20260905123627 74 142 0.0 1.0 0.00 0.00 0.00 91 1015.6
20260905123124 74 131 0.0 0.0 0.00 0.00 0.00 91 1015.8
20260905122618 74 136 1.0 1.0 0.00 0.00 0.00 91 1015.7
20260905122113 73 154 1.0 2.0 0.00 0.00 0.00 91 1015.6
20260905121608 73 139 1.0 2.0 0.00 0.00 0.00 91 1015.5
20260905121103 73 144 0.0 0.0 0.00 0.00 0.00 92 1015.5
20260905120602 73 129 0.0 0.0 0.00 0.00 0.00 92 1015.5
20260905120057 73 115 0.0 0.0 0.00 0.00 0.00 92 1015.5
20260905115556 72 131 0.0 0.0 0.00 0.00 0.00 93 1015.4
20260905115051 72 127 1.0 1.0 0.00 0.00 0.00 92 1015.2
20260905114551 73 116 0.0 0.0 0.00 0.00 0.00 93 1015.1
20260905114049 73 127 1.0 1.0 0.00 0.00 0.00 92 1015.4
20260905113544 73 128 0.0 1.0 0.00 0.00 0.00 92 1015.2
20260905113039 73 131 0.0 0.0 0.00 0.00 0.00 92 1015.3
20260905112534 73 132 0.0 0.0 0.00 0.00 0.00 91 1015.3
20260905112030 73 131 0.0 0.0 0.00 0.00 0.00 91 1015.4
20260905111525 74 128 0.0 0.0 0.00 0.00 0.00 90 1015.2
20260905111025 74 106 0.0 0.0 0.00 0.00 0.00 90 1015.0
20260905110523 74 98 0.0 0.0 0.00 0.00 0.00 90 1015.3
20260905110018 74 92 0.0 0.0 0.00 0.00 0.00 90 1015.2
20260905105513 74 98 0.0 0.0 0.00 0.00 0.00 90 1015.2
20260905105007 74 91 0.0 0.0 0.00 0.00 0.00 90 1015.1
20260905104503 74 100 0.0 0.0 0.00 0.00 0.00 89 1015.1
20260905103957 74 141 0.0 0.0 0.00 0.00 0.00 89 1015.2
20260905103452 74 142 0.0 0.0 0.00 0.00 0.00 89 1015.2
20260905102949 74 151 0.0 0.0 0.00 0.00 0.00 89 1015.1
20260905102444 74 150 0.0 0.0 0.00 0.00 0.00 89 1015.2
20260905101939 75 158 0.0 0.0 0.00 0.00 0.00 88 1015.0
20260905101438 74 221 1.0 1.0 0.00 0.00 0.00 89 1015.0
20260905100938 74 197 1.0 1.0 0.00 0.00 0.00 90 1015.2
20260905100433 74 194 0.0 0.0 0.00 0.00 0.00 89 1015.0
20260905095932 74 172 0.0 0.0 0.00 0.00 0.00 89 1015.0
20260905095432 74 181 1.0 2.0 0.00 0.00 0.00 89 1015.1
20260905094927 74 234 1.0 2.0 0.00 0.00 0.00 90 1015.1
20260905094423 74 179 0.0 0.0 0.00 0.00 0.00 90 1015.1
20260905093922 74 182 0.0 1.0 0.00 0.00 0.00 90 1015.1
20260905093417 75 240 2.0 2.0 0.00 0.00 0.00 88 1015.1
20260905092913 75 174 1.0 1.0 0.00 0.00 0.00 88 1015.1
20260905092408 75 216 1.0 2.0 0.00 0.00 0.00 87 1015.1
20260905091903 75 158 0.0 0.0 0.00 0.00 0.00 87 1015.2
20260905091402 75 151 0.0 0.0 0.00 0.00 0.00 86 1015.2
20260905090901 76 190 1.0 1.0 0.00 0.00 0.00 85 1015.1
20260905090357 76 202 1.0 2.0 0.00 0.00 0.00 85 1015.2
20260905085856 77 238 1.0 1.0 0.00 0.00 0.00 84 1015.2
20260905085351 77 257 2.0 2.0 0.00 0.00 0.00 84 1015.1
20260905084848 77 247 1.0 2.0 0.00 0.00 0.00 84 1015.1
20260905084346 77 240 2.0 2.0 0.00 0.00 0.00 83 1015.2
20260905083841 78 253 2.0 3.0 0.00 0.00 0.00 82 1015.2
20260905083337 78 241 1.0 1.0 0.00 0.00 0.00 82 1015.3
20260905082832 78 256 1.0 2.0 0.00 0.00 0.00 81 1015.3
20260905082328 78 245 1.0 1.0 0.00 0.00 0.00 81 1015.3
20260905081823 78 235 1.0 1.0 0.00 0.00 0.00 81 1015.5
20260905081318 78 267 2.0 2.0 0.00 0.00 0.00 80 1015.3
20260905080817 78 279 2.0 3.0 0.00 0.00 0.00 81 1015.4
20260905080312 78 249 2.0 2.0 0.00 0.00 0.00 81 1015.4
20260905075810 78 275 3.0 3.0 0.00 0.00 0.00 81 1015.3
20260905075306 78 296 1.0 1.0 0.00 0.00 0.00 82 1015.4
20260905074803 77 253 1.0 1.0 0.00 0.00 0.00 82 1015.4
20260905074300 77 322 1.0 1.0 0.00 0.00 0.00 83 1015.5
20260905073754 77 279 2.0 2.0 0.00 0.00 0.00 84 1015.3
20260905073249 77 344 1.0 1.0 0.00 0.00 0.00 84 1015.4
20260905072744 76 266 1.0 2.0 0.00 0.00 0.00 86 1015.6
20260905072239 76 109 0.0 0.0 0.00 0.00 0.00 86 1015.4
20260905071736 76 277 1.0 1.0 0.00 0.00 0.00 87 1015.3
20260905071232 75 240 0.0 0.0 0.00 0.00 0.00 88 1015.1
20260905070727 75 163 0.0 0.0 0.00 0.00 0.00 89 1015.4
20260905070223 75 115 0.0 0.0 0.00 0.00 0.00 88 1015.4
20260905065721 75 113 0.0 0.0 0.00 0.00 0.00 88 1015.3
20260905065215 75 132 0.0 0.0 0.00 0.00 0.00 88 1015.3
20260905064711 76 101 0.0 0.0 0.00 0.00 0.00 88 1015.3
20260905064207 76 101 0.0 0.0 0.00 0.00 0.00 87 1015.3
20260905063704 76 101 0.0 0.0 0.00 0.00 0.00 87 1015.4
20260905063201 76 98 0.0 0.0 0.00 0.00 0.00 87 1015.3
20260905062656 76 90 0.0 0.0 0.00 0.00 0.00 88 1015.3
20260905062155 76 107 0.0 0.0 0.00 0.00 0.00 87 1015.5
20260905061650 76 107 0.0 0.0 0.00 0.00 0.00 87 1015.5
20260905061144 76 100 0.0 0.0 0.00 0.00 0.00 87 1015.4
20260905060640 76 128 0.0 0.0 0.00 0.00 0.00 87 1015.5
20260905060136 76 130 0.0 0.0 0.00 0.00 0.00 87 1015.3
20260905055635 76 131 0.0 0.0 0.00 0.00 0.00 87 1015.4
20260905055130 76 116 0.0 0.0 0.00 0.00 0.00 87 1015.4
20260905054626 76 118 0.0 0.0 0.00 0.00 0.00 87 1015.4
20260905054121 77 148 0.0 0.0 0.00 0.00 0.00 87 1015.4
20260905053620 77 143 0.0 0.0 0.00 0.00 0.00 86 1015.6
20260905053115 77 103 0.0 0.0 0.00 0.00 0.00 85 1015.6
20260905052614 77 100 0.0 0.0 0.00 0.00 0.00 85 1015.6
20260905052104 78 102 0.0 0.0 0.00 0.00 0.00 84 1015.6
20260905051600 78 102 0.0 0.0 0.00 0.00 0.00 83 1015.5
20260905051056 78 95 0.0 0.0 0.00 0.00 0.00 83 1015.7
20260905050551 78 113 0.0 0.0 0.00 0.00 0.00 83 1015.5
20260905050043 78 115 0.0 0.0 0.00 0.00 0.00 83 1015.5
20260905045537 78 115 0.0 0.0 0.00 0.00 0.00 83 1015.6
20260905045032 78 115 0.0 0.0 0.00 0.00 0.00 83 1015.6
20260905044526 78 115 0.0 0.0 0.00 0.00 0.00 82 1015.6
20260905044021 78 115 0.0 0.0 0.00 0.00 0.00 82 1015.7
20260905043520 78 115 0.0 0.0 0.00 0.00 0.00 82 1015.7
20260905043015 78 115 0.0 0.0 0.00 0.00 0.00 82 1015.7
20260905042509 79 115 0.0 0.0 0.00 0.00 0.00 81 1015.7
20260905042004 79 119 0.0 0.0 0.00 0.00 0.00 81 1015.7
20260905041459 79 109 0.0 0.0 0.00 0.00 0.00 81 1015.7
20260905040954 80 137 0.0 0.0 0.00 0.00 0.00 80 1015.6
20260905040448 80 116 0.0 0.0 0.00 0.00 0.00 79 1015.8
20260905035947 80 109 0.0 0.0 0.00 0.00 0.00 78 1015.6
20260905035442 80 127 0.0 0.0 0.00 0.00 0.00 78 1015.9
20260905034939 80 120 0.0 0.0 0.00 0.00 0.00 78 1015.6
20260905034434 80 120 0.0 0.0 0.00 0.00 0.00 78 1015.5
20260905033933 80 113 0.0 0.0 0.00 0.00 0.00 78 1015.6
20260905033428 80 77 0.0 0.0 0.00 0.00 0.00 78 1015.6
20260905032928 80 140 0.0 0.0 0.00 0.00 0.00 78 1015.5
20260905032424 80 150 0.0 0.0 0.00 0.00 0.00 79 1015.7
20260905031919 81 141 0.0 0.0 0.00 0.00 0.00 78 1015.7
20260905031415 81 143 0.0 0.0 0.00 0.00 0.00 77 1015.6
20260905030910 82 155 1.0 1.0 0.00 0.00 0.00 75 1015.7
20260905030405 82 148 1.0 1.0 0.00 0.00 0.00 74 1015.6
20260905025904 82 184 1.0 1.0 0.00 0.00 0.00 74 1015.6
20260905025354 82 130 0.0 0.0 0.00 0.00 0.00 74 1015.6
20260905024850 82 164 0.0 0.0 0.00 0.00 0.00 74 1015.4
20260905024345 82 124 0.0 0.0 0.00 0.00 0.00 74 1015.4
20260905023840 82 130 0.0 0.0 0.00 0.00 0.00 74 1015.7
20260905023335 83 102 0.0 0.0 0.00 0.00 0.00 73 1015.3
20260905022834 83 138 0.0 0.0 0.00 0.00 0.00 72 1015.3
20260905022329 83 148 0.0 0.0 0.00 0.00 0.00 73 1015.3
20260905021825 83 151 0.0 0.0 0.00 0.00 0.00 73 1015.1
20260905021320 83 129 0.0 0.0 0.00 0.00 0.00 73 1015.3
20260905020820 84 132 0.0 0.0 0.00 0.00 0.00 73 1015.2
20260905020315 84 133 0.0 0.0 0.00 0.00 0.00 72 1015.4
20260905015813 84 126 0.0 0.0 0.00 0.00 0.00 71 1015.3
20260905015308 84 128 0.0 0.0 0.00 0.00 0.00 70 1015.3
20260905014807 85 150 1.0 1.0 0.00 0.00 0.00 71 1015.2
20260905014303 85 148 1.0 1.0 0.00 0.00 0.00 71 1015.1
20260905013758 85 134 0.0 0.0 0.00 0.00 0.00 70 1015.0
20260905013254 86 155 0.0 0.0 0.00 0.00 0.00 68 1014.9
20260905012749 86 143 0.0 0.0 0.00 0.00 0.00 66 1015.1
20260905012245 86 105 0.0 0.0 0.00 0.00 0.00 67 1014.8
20260905011736 86 123 0.0 0.0 0.00 0.00 0.00 68 1014.7
20260905011226 86 127 0.0 0.0 0.00 0.00 0.00 67 1014.8
20260905010726 86 112 0.0 0.0 0.00 0.00 0.00 67 1014.8
20260905010221 87 109 0.0 0.0 0.00 0.00 0.00 65 1014.9
20260905005718 87 133 0.0 0.0 0.00 0.00 0.00 66 1014.7
20260905005213 88 132 0.0 0.0 0.00 0.00 0.00 65 1014.8
20260905004707 88 122 0.0 0.0 0.00 0.00 0.00 64 1014.7
20260905004203 88 120 0.0 1.0 0.00 0.00 0.00 64 1014.6
20260905003658 89 132 0.0 0.0 0.00 0.00 0.00 63 1014.5
20260905003154 89 137 0.0 0.0 0.00 0.00 0.00 62 1014.5
20260905002649 90 144 0.0 0.0 0.00 0.00 0.00 62 1014.3
20260905002149 90 149 0.0 0.0 0.00 0.00 0.00 60 1014.4
20260905001644 91 134 0.0 0.0 0.00 0.00 0.00 59 1014.4
20260905001143 92 116 0.0 0.0 0.00 0.00 0.00 58 1014.5
20260905000638 92 116 0.0 0.0 0.00 0.00 0.00 57 1014.6
20260905000134 93 138 0.0 0.0 0.00 0.00 0.00 58 1014.6
20260904235634 93 153 1.0 1.0 0.00 0.00 0.00 57 1014.3
20260904235133 94 151 1.0 1.0 0.00 0.00 0.00 56 1014.4